Home > Weather > Caversham > Past weeks

Flag for United Kingdom Past Weather in Caversham, England, United Kingdom — Yesterday and Last 2 Weeks

Now
53 °F

Cool.


Feels Like: 52 °F
Forecast: 54 / 69 °F
Wind: 5 mph from South

Location: Benson

Current Time: Jul 25, 2016 at 5:26:16 AM

Latest Report: Jul 25, 2016 at 4:00 AM


Visibility: 11 mi

Pressure: 30.07 "Hg

Humidity: 97%

Dew Point: 52 °F

Location of CavershamLocation

Past Weather in Caversham — Graph

°F

Caversham Temperature Yesterday

Maximum temperature yesterday: 73 °F (at 2:00 PM)
Minimum temperature yesterday: 52 °F (at 5:00 AM)
Average temperature yesterday: 64 °F

High & Low Weather Summary for the Past Weeks

 TemperatureHumidityPressure
High90 °F (Jul 19, 4:00 PM)100% (Jul 18, 3:00 AM)30.33 "Hg (Jul 18, 3:00 AM)
Low43 °F (Jul 15, 4:00 AM)36% (Jul 19, 5:00 PM)29.67 "Hg (Jul 11, 5:00 AM)
Average65 °F74%30.05 "Hg
* Reported Jul 10 4:00 AM — Jul 25 4:00 AM, Caversham, Weather by CustomWeather, © 2016

Note: Actual official high and low records may vary slightly from our data, if they occured in-between our weather recording intervals... More about our weather records

Advertising

Caversham Weather History for the Previous 24 Hours

Scroll right to see more
 ConditionsComfort  
Time TempWeatherWind HumidityBarometerVisibility
4:00 AM
Mon, Jul 25
53 °FCool.5 mph97%30.07 "Hg11 mi
3:00 AM55 °FCool.3 mph93%30.08 "Hg16 mi
2:00 AM54 °FCool.6 mph95%30.08 "Hg11 mi
1:00 AM57 °FCool.6 mph89%30.08 "Hg16 mi
12:00 AM61 °FCool.8 mph85%30.08 "Hg17 mi
11:00 PM
Sun, Jul 24
63 °FMild.10 mph90%30.06 "Hg17 mi
10:00 PM64 °FMild.7 mph97%30.06 "Hg1 mi
9:00 PM65 °FMild.9 mph92%30.05 "Hg9 mi
8:00 PM67 °FMild.12 mph83%30.04 "Hg16 mi
7:00 PM69 °FMild.14 mph78%30.04 "Hg17 mi
6:00 PM70 °FMild.14 mph74%30.03 "Hg19 mi
5:00 PM69 °FMild.7 mph83%30.05 "Hg15 mi
4:00 PM69 °FMild.12 mph74%30.06 "Hg9 mi
3:00 PM71 °FMild.12 mph72%30.06 "Hg9 mi
2:00 PM73 °FMild.13 mph58%30.06 "Hg17 mi
1:00 PM72 °FMild.12 mph56%30.07 "Hg19 mi
12:00 PM70 °FMild.13 mph66%30.08 "Hg19 mi
11:00 AM69 °FMild.10 mph70%30.09 "Hg19 mi
10:00 AM67 °FMild.8 mph77%30.10 "Hg17 mi
9:00 AM64 °FMild.7 mph83%30.11 "Hg15 mi
8:00 AM62 °FCool.3 mph88%30.11 "Hg16 mi
7:00 AM61 °FCool.5 mph90%30.10 "Hg12 mi
6:00 AM53 °FCool.2 mph95%30.10 "Hg11 mi
5:00 AM52 °FCool.2 mph95%30.10 "Hg14 mi
Weather by CustomWeather, © 2016

See weather overviewHow to use our weather pages